[[{"header":{"parameterUnit":"m.s-1","parameterCategory":1,"la1":30.2991,"la2":30.254,"lo1":-89.0895,"lo2":-89.0444,"dy":0.0017,"dx":0.0017,"nx":28,"ny":28,"refTime":"2025-04-23T03:00:00:Z","depth":0,"parameterNumber":2,"parameterNumberName":"U-component_of_WINDS"},"data":[0,0,0,0,0,0,0,0,0,0,0,0,0,0,0,0,0,0,0,0,0,0,0,0,0,0,0,0,0,0,0,0,0,0,0,0,0,0,0,0,0,0,0,0,0,0,0,0,0,0,0,0,0,0,0,0,0,0,-1.8218,-1.8218,0,-1.8186,-1.8186,-1.8185,-1.8123,-1.8121,-1.812,-1.8119,-1.8087,-1.8088,-1.8088,0,0,0,0,0,0,0,0,0,0,0,0,0,-1.8226,-1.8227,-1.8218,-1.8218,-1.8217,-1.8186,-1.8185,-1.8185,-1.8123,-1.8121,-1.812,-1.8118,-1.8087,-1.8088,-1.8088,0,0,0,0,0,0,0,0,0,0,0,0,0,-1.8212,-1.8227,-1.8218,-1.8182,-1.8179,-1.8186,-1.8185,-1.8185,-1.8123,-1.8121,-1.8119,-1.8118,-1.8087,-1.8088,-1.8088,-1.8128,0,0,-1.8089,-1.809,0,0,0,0,0,0,0,0,-1.8212,-1.8211,-1.8188,-1.8185,-1.8181,-1.8156,-1.8177,-1.8166,-1.8124,-1.8144,-1.8119,-1.8117,-1.8112,-1.811,-1.8108,-1.8126,-1.8125,-1.8089,-1.809,-1.809,-1.809,0,0,0,0,0,0,0,-1.8214,-1.8212,-1.8205,-1.8188,-1.8183,-1.8168,-1.8164,-1.8174,-1.8139,-1.8142,-1.8138,-1.8135,-1.811,-1.8108,-1.8107,-1.8124,-1.8089,-1.809,-1.809,-1.809,-1.8173,-1.8175,0,0,0,0,0,0,-1.822,-1.8214,-1.8206,-1.8204,-1.8192,-1.817,-1.8165,-1.8166,-1.8139,-1.8133,-1.8136,-1.8132,-1.8108,-1.8107,-1.8106,-1.815,-1.809,-1.809,-1.8091,-1.8172,-1.8174,-1.8176,0,0,0,0,0,0,-1.822,-1.822,-1.8208,-1.8208,-1.8205,-1.8171,-1.8173,-1.8166,-1.8165,-1.8134,-1.8127,-1.8141,-1.8107,-1.8105,-1.8123,-1.8148,-1.8091,-1.8091,-1.8169,-1.8172,-1.8175,-1.824,0,0,0,0,0,0,-1.8221,-1.822,-1.8235,-1.8208,-1.8205,-1.8225,-1.8175,-1.8167,-1.8166,-1.8159,-1.8137,-1.8131,-1.8105,-1.8122,-1.8123,-1.8148,-1.8091,-1.8167,-1.8171,-1.8174,-1.8235,-1.8245,-1.8253,0,0,0,0,0,-1.8221,-1.8254,-1.8236,-1.8235,-1.8222,-1.8226,-1.8225,-1.8193,-1.8168,-1.8182,-1.8163,-1.8132,-1.8145,-1.8125,-1.8125,-1.815,-1.8165,-1.817,-1.8174,-1.8231,-1.8243,-1.8252,0,0,0,0,0,0,-1.8285,-1.825,-1.8229,-1.8255,-1.8244,-1.8216,-1.8233,-1.8207,-1.8203,-1.8198,-1.8159,-1.8155,-1.8177,-1.8166,-1.8143,-1.8187,-1.815,-1.8155,-1.8194,-1.8205,-1.8213,-1.8215,-1.8092,0,0,0,0,0,-1.8302,-1.8307,-1.8277,-1.8303,-1.8298,-1.8267,-1.8267,-1.8244,-1.8232,-1.8227,-1.8209,-1.8198,-1.8199,-1.8201,-1.8201,-1.8233,-1.8228,-1.8251,-1.826,-1.8267,-1.8271,-1.8287,-1.8297,-1.819,-1.819,-1.819,0,0,-1.8337,-1.8319,-1.8325,-1.8315,-1.8304,-1.8311,-1.8263,-1.8273,-1.8278,-1.8228,-1.8244,-1.823,-1.8216,-1.8241,-1.8251,-1.8231,-1.83,-1.8272,-1.8279,-1.8279,-1.8293,-1.8303,-1.8312,-1.8193,-1.8193,-1.8192,0,0,-1.8404,-1.8391,-1.8411,-1.8401,-1.8385,-1.8363,-1.8369,-1.8344,-1.8333,-1.8348,-1.8311,-1.8317,-1.8321,-1.8312,-1.8308,-1.8373,-1.8344,-1.8374,-1.8419,-1.8435,-1.8443,-1.8451,-1.8473,-1.8482,-1.8378,-1.8378,-1.8379,0,-1.845,-1.8459,-1.8425,-1.8436,-1.8433,-1.8389,-1.8409,-1.8401,-1.8386,-1.8385,-1.8363,-1.8367,-1.8354,-1.8377,-1.8393,-1.8391,-1.8395,-1.8376,-1.8445,-1.8452,-1.8458,-1.8479,-1.8488,-1.8382,-1.8382,-1.8381,-1.8381,0,-1.8516,-1.8523,-1.8541,-1.8527,-1.8526,-1.8542,-1.851,-1.8514,-1.8491,-1.8472,-1.8488,-1.8471,-1.8467,-1.8471,-1.8449,-1.849,-1.8478,-1.8452,-1.8414,-1.8472,-1.8492,-1.85,-1.8387,-1.8386,-1.8385,-1.8384,0,0,-1.8622,-1.8589,-1.8596,-1.8589,-1.8568,-1.8573,-1.8587,-1.8583,-1.8586,-1.8578,-1.8589,-1.8593,-1.8568,-1.8564,-1.854,-1.8555,-1.8607,-1.8526,-1.8525,-1.8541,-1.8651,-1.8671,-1.8681,-1.8588,-1.859,-1.8591,-1.8652,0,-1.8685,-1.8706,-1.8676,-1.8705,-1.8711,-1.8669,-1.8681,-1.867,-1.8653,-1.8656,-1.8637,-1.8641,-1.8608,-1.8605,-1.8617,-1.8598,-1.8628,-1.8593,-1.8598,-1.8598,-1.8602,-1.8691,-1.8712,-1.8771,-1.866,-1.8661,-1.8662,0,-1.876,-1.8755,-1.8784,-1.8761,-1.8763,-1.8774,-1.8768,-1.8771,-1.8757,-1.8744,-1.874,-1.8712,-1.8724,-1.8688,-1.8705,-1.8682,-1.8682,-1.8673,-1.8674,-1.8673,-1.8633,-1.8692,-1.8789,-1.8798,-1.8673,-1.8672,-1.8672,0,-1.8835,-1.8835,-1.8852,-1.8847,-1.8821,-1.8831,-1.882,-1.8805,-1.8804,-1.8799,-1.8798,-1.8794,-1.8792,-1.879,-1.8762,-1.8738,-1.8783,-1.8744,-1.8772,-1.8773,-1.8783,-1.8782,-1.8881,-1.8784,-1.8784,-1.8783,-1.8783,0,-1.8907,-1.8927,-1.8885,-1.8896,-1.8916,-1.8882,-1.8903,-1.8889,-1.8876,-1.8883,-1.8847,-1.8855,-1.8817,-1.8821,-1.88,-1.8817,-1.8816,-1.8806,-1.88,-1.8809,-1.881,-1.8808,-1.8803,-1.8786,-1.8785,-1.8785,-1.8784,0,-1.8994,-1.8966,-1.8982,-1.8956,-1.895,-1.8967,-1.8945,-1.8954,-1.8935,-1.8944,-1.8945,-1.8915,-1.8918,-1.889,-1.8887,-1.8872,-1.89,-1.8887,-1.8904,-1.89,-1.8929,-1.8927,-1.9029,-1.9041,-1.8937,-1.8938,-1.8939,0,-1.9042,-1.9056,-1.9031,-1.9033,-1.9025,-1.9029,-1.9028,-1.8995,-1.8995,-1.8981,-1.8992,-1.8991,-1.8989,-1.8996,-1.8974,-1.8972,-1.8958,-1.8994,-1.8957,-1.8966,-1.8958,-1.8958,-1.8959,-1.9002,-1.9003,-1.9004,-1.9005,0,-1.913,-1.9116,-1.9115,-1.9111,-1.911,-1.9105,-1.9097,-1.9101,-1.9065,-1.9068,-1.907,-1.9068,-1.9066,-1.9066,-1.9059,-1.9049,-1.9021,-1.9017,-1.9023,-1.9032,-1.9042,-1.9037,-1.8925,-1.9015,-1.9014,-1.9013,-1.9012,-1.9012,-1.9198,-1.9209,-1.9193,-1.9194,-1.9185,-1.9178,-1.9185,-1.9167,-1.9168,-1.9163,-1.9144,-1.9149,-1.9136,-1.9124,-1.9116,-1.912,-1.9103,-1.9112,-1.9114,-1.9117,-1.9122,-1.9042,-1.9119,-1.9119,-1.9119,-1.9118,-1.9118,0,-1.9284,-1.9272,-1.9273,-1.9264,-1.9265,-1.9238,-1.9228,-1.9231,-1.9236,-1.9226,-1.9224,-1.9227,-1.9227,-1.9205,-1.9203,-1.921,-1.9197,-1.9211,-1.9209,-1.9208,-1.9138,-1.9133,-1.9221,-1.9221,-1.9221,-1.9221,-1.9221,-1.9221,-1.9329,-1.9345,-1.933,-1.9341,-1.9328,-1.9333,-1.933,-1.9324,-1.9316,-1.932,-1.932,-1.9305,-1.929,-1.9286,-1.9285,-1.9279,-1.928,-1.9297,-1.9287,-1.9222,-1.9212,-1.9203,-1.9198,-1.9298,-1.9298,-1.9355,-1.9356,-1.9356]},{"header":{"parameterUnit":"m.s-1","parameterCategory":1,"la1":30.2991,"la2":30.254,"lo1":-89.0895,"lo2":-89.0444,"dy":0.0017,"dx":0.0017,"nx":28,"ny":28,"refTime":"2025-04-23T03:00:00:Z","depth":0,"parameterNumber":3,"parameterNumberName":"V-component_of_WINDS"},"data":[0,0,0,0,0,0,0,0,0,0,0,0,0,0,0,0,0,0,0,0,0,0,0,0,0,0,0,0,0,0,0,0,0,0,0,0,0,0,0,0,0,0,0,0,0,0,0,0,0,0,0,0,0,0,0,0,0,0,2.0067,2.0067,0,2.0079,2.0079,2.0079,2.0064,2.0063,2.0063,2.0062,2.0073,2.0074,2.0075,0,0,0,0,0,0,0,0,0,0,0,0,0,2.003,2.0031,2.0067,2.0067,2.0068,2.0079,2.0079,2.008,2.0064,2.0063,2.0063,2.0062,2.0073,2.0074,2.0075,0,0,0,0,0,0,0,0,0,0,0,0,0,2.0045,2.0031,2.0067,2.0061,2.0061,2.0079,2.0079,2.008,2.0064,2.0063,2.0062,2.0062,2.0073,2.0074,2.0075,2.0099,0,0,2.0079,2.0079,0,0,0,0,0,0,0,0,2.0044,2.0046,2.0062,2.0062,2.0061,2.0069,2.007,2.0086,2.0064,2.0063,2.0062,2.0061,2.0073,2.0074,2.0078,2.01,2.01,2.0079,2.008,2.008,2.0081,0,0,0,0,0,0,0,2.0043,2.0046,2.0072,2.0062,2.0062,2.0058,2.0059,2.0073,2.0072,2.0063,2.0062,2.0063,2.0072,2.0077,2.0078,2.0101,2.0079,2.008,2.0081,2.0081,2.0144,2.0145,0,0,0,0,0,0,2.0043,2.0045,2.0072,2.0072,2.005,2.0059,2.006,2.0067,2.0072,2.0072,2.0064,2.0063,2.0075,2.0076,2.0078,2.0108,2.008,2.0081,2.0082,2.0143,2.0144,2.0145,0,0,0,0,0,0,2.0042,2.0045,2.0071,2.0058,2.0061,2.0061,2.0069,2.0068,2.0073,2.0073,2.0073,2.0069,2.0074,2.0076,2.0095,2.0108,2.0082,2.0083,2.0142,2.0144,2.0145,2.0166,0,0,0,0,0,0,2.0041,2.0045,2.0055,2.0059,2.0062,2.0087,2.007,2.0069,2.0075,2.0073,2.0077,2.0077,2.0074,2.0093,2.0096,2.0109,2.0084,2.0141,2.0143,2.0144,2.0164,2.0168,2.0172,0,0,0,0,0,2.004,2.006,2.0055,2.0058,2.0074,2.0088,2.009,2.0086,2.0076,2.0085,2.0086,2.0077,2.0106,2.0095,2.0098,2.0112,2.014,2.0142,2.0144,2.0163,2.0167,2.0171,0,0,0,0,0,0,2.0056,2.006,2.0055,2.0077,2.0082,2.0086,2.0097,2.0091,2.0099,2.0097,2.0091,2.0093,2.0112,2.0114,2.0101,2.0136,2.0121,2.0124,2.0134,2.0139,2.0142,2.0141,2.0085,0,0,0,0,0,2.0063,2.0075,2.0077,2.0096,2.0099,2.0098,2.0104,2.01,2.0106,2.0108,2.011,2.0115,2.0125,2.0132,2.0141,2.0165,2.0165,2.0176,2.0179,2.0182,2.0185,2.0198,2.0202,2.0152,2.0152,2.0152,0,0,2.0076,2.0079,2.0087,2.0099,2.0103,2.0116,2.01,2.0113,2.0122,2.011,2.0127,2.0129,2.0134,2.0155,2.0165,2.0157,2.0199,2.0185,2.0187,2.0188,2.02,2.0205,2.0209,2.0154,2.0154,2.0153,0,0,2.0106,2.0109,2.0126,2.013,2.0137,2.0136,2.014,2.0144,2.0145,2.0163,2.0154,2.0164,2.0182,2.0187,2.0191,2.0224,2.0216,2.0227,2.0246,2.0258,2.0262,2.0266,2.0278,2.0282,2.023,2.023,2.023,0,2.0121,2.0139,2.0135,2.0149,2.0155,2.0145,2.0162,2.0167,2.0176,2.018,2.0172,2.0194,2.0197,2.0219,2.0228,2.0231,2.0236,2.0226,2.0262,2.0266,2.0269,2.028,2.0285,2.0231,2.0231,2.0231,2.023,0,2.0158,2.0171,2.0183,2.0193,2.02,2.0216,2.0214,2.0222,2.0218,2.0218,2.0236,2.024,2.025,2.0255,2.0251,2.0277,2.0272,2.0263,2.0248,2.0275,2.0286,2.029,2.0233,2.0232,2.0232,2.0232,0,0,2.0198,2.0206,2.0211,2.0215,2.0222,2.0232,2.0247,2.0258,2.0265,2.0271,2.0284,2.03,2.0292,2.0297,2.0294,2.0305,2.0331,2.0294,2.0295,2.0301,2.036,2.0367,2.0372,2.0326,2.0327,2.0328,2.036,0,2.0228,2.0255,2.0252,2.0278,2.029,2.0281,2.0294,2.03,2.03,2.0311,2.0311,2.0323,2.0311,2.0314,2.0325,2.0326,2.0343,2.0323,2.0338,2.0339,2.0337,2.0378,2.0385,2.0415,2.0364,2.0365,2.0365,0,2.0267,2.0276,2.0303,2.0309,2.0314,2.0326,2.0336,2.0346,2.0352,2.0351,2.0358,2.0353,2.0368,2.0353,2.0374,2.0361,2.0367,2.0368,2.0369,2.037,2.0354,2.0381,2.0425,2.043,2.0372,2.0371,2.0371,0,2.0294,2.0313,2.0332,2.0336,2.0343,2.0352,2.0355,2.036,2.0367,2.0376,2.038,2.039,2.0396,2.0404,2.0401,2.039,2.0423,2.0408,2.0423,2.0423,2.043,2.043,2.0477,2.0434,2.0434,2.0434,2.0434,0,2.0329,2.0345,2.0344,2.0356,2.0375,2.0371,2.039,2.0392,2.0397,2.0409,2.0401,2.0412,2.0409,2.0419,2.0418,2.0436,2.0438,2.0438,2.0438,2.0439,2.0439,2.0443,2.0441,2.0435,2.0435,2.0434,2.0434,0,2.0362,2.0362,2.0382,2.0387,2.0389,2.0403,2.0407,2.0418,2.0418,2.0433,2.0437,2.0437,2.045,2.0448,2.0462,2.046,2.0483,2.048,2.0481,2.048,2.0496,2.0495,2.0547,2.0554,2.0507,2.0507,2.0507,0,2.0384,2.0397,2.0404,2.0412,2.0416,2.0428,2.0435,2.0433,2.044,2.0449,2.0459,2.0471,2.048,2.0501,2.0502,2.0513,2.051,2.0527,2.0511,2.0513,2.051,2.051,2.0511,2.053,2.0531,2.0531,2.0532,0,2.0423,2.0423,2.0434,2.0445,2.0454,2.0463,2.047,2.0477,2.0475,2.0484,2.0497,2.0504,2.0519,2.0531,2.0541,2.0544,2.0538,2.0537,2.0541,2.0543,2.0543,2.0544,2.049,2.0536,2.0535,2.0535,2.0535,2.0535,2.0452,2.0464,2.0471,2.0483,2.0489,2.0496,2.0507,2.0509,2.052,2.0532,2.053,2.0545,2.0551,2.0564,2.0568,2.058,2.0573,2.0579,2.0581,2.0583,2.0585,2.0542,2.0582,2.0581,2.0581,2.0581,2.0581,0,2.0491,2.0496,2.0507,2.0519,2.0529,2.0523,2.0531,2.054,2.0553,2.056,2.0569,2.0585,2.0597,2.0599,2.0611,2.0619,2.0617,2.0622,2.0622,2.0623,2.059,2.0585,2.0624,2.0624,2.0624,2.0624,2.0624,2.0624,2.0513,2.0532,2.0533,2.0555,2.0559,2.0574,2.0579,2.0586,2.0592,2.0609,2.0619,2.0621,2.0626,2.0638,2.0649,2.0649,2.0654,2.0661,2.066,2.0629,2.0625,2.0621,2.0616,2.0662,2.0662,2.0692,2.0693,2.0693]}]]